Terminal Aerodrome Forecast
Issued by NWS

Home | Current Version | Previous Version | Text Only | Print | Product List | Glossary On
Versions: 1 2 3 4 5 6 7 8 9 10 11 12 13 14 15 16 17 18 19 20
000
FTUS45 KFGZ 292300
TAFPGA
TAF
KPGA 292336Z 3000/3024 VRB05KT P6SM FEW120
     FM302100 32008G15KT P6SM SCT100=

USA.gov is the U.S. government's official web portal to all federal, state and local government web resources and services.